Weather in Izhmorsky

Russia / Kemerovo Oblast     56°11′31″N   86°38′10″E
temp.,
°C
wind,
m/s
gust,
m/s
humid.,
%
clouds,
%
prec.,
mm/h
press.,
hPa
HPBL,
m
10 april, sat
sat1001:00+1ne2683100 0.0 1035104
04:000nne268799 0.0 1035131
07:00−2ne27959 0.0 1036142
10:00+1ne379742 0.0 1037342
13:00+3nne369472 0.0 1038452
16:00+4ne259498 0.1 1038406
19:00+2e259631 0.2 1040145
22:00+2e3578100 0.0 1042138
11 april, sun
sun1101:00+1ene247776 0.0 104265
04:00−4ese11955 0.0 104210
07:00−4ne119538 0.0 104331
10:00+1ene2279100 0.0 1042263
13:00+4n216693 0.0 1041599
16:00+4nnw236599 0.0 1040613
19:00+3w0082100 0.0 103910
22:00+1sw1188100 0.0 103915
12 april, mon
mon1201:00+1sw2290100 0.0 103739
04:00+1sw2393100 0.1 103576
07:00+1sw3892100 0.1 1034218
10:00+4sw51284100 0.0 1032498
13:00+7sw6137176 0.0 1030683
16:00+6wsw61372100 0.0 1028702
19:00+5wsw51277100 0.0 1027529
22:00+4wsw51191100 0.1 1027550
13 april, tue
tue1301:00+3w4997100 0.6 1027549
04:00+2nw3891100 0.1 1027500
07:000wnw37915 0.1 1029194
10:00+3wnw47765 0.0 1029698
13:00+6wnw5852100 0.0 10281955
16:00+7wnw6850100 0.3 10272185
19:00+5wnw5958100 0.5 10281299
22:00+2w41173100 0.0 1028477
14 april, wed
wed1401:00+2w51182100 0.1 1028458
04:00+1wsw51187100 0.0 1027447
07:00+1w51192100 0.1 1027610
10:00+4w6107589 0.0 10271105
13:00+5w6972100 0.1 10251183
16:00+4w61194100 0.5 1024865
19:00+4w51297100 1.3 10221059
22:00+4wsw2891100 0.7 1021326